• MPC Preparation (Info)

  • MPEC 2019-G73 : 2011 HP

    The following Minor Planet Electronic Circular may be linked-to from your own Web pages, but must not otherwise be redistributed electronically.

    A form allowing access to any MPEC is at the bottom of this page.


    Read MPEC 2019-G72 Read MPEC 2019-G74


    M.P.E.C. 2019-G73                                Issued 2019 Apr. 7, 16:18 UT
    
         The Minor Planet Electronic Circulars contain information on unusual
             minor planets and routine data on comets.  They are published
        on behalf of Division F of the International Astronomical Union by the
              Minor Planet Center, Smithsonian Astrophysical Observatory,
                              Cambridge, MA 02138, U.S.A.
    
                 Prepared using the Tamkin Foundation Computer Network
    
                                  MPC@CFA.HARVARD.EDU
                URL https://www.minorplanetcenter.net/    ISSN 1523-6714
    
                                        2011 HP
    
                               Revision to MPEC 2011-H31
    
    Additional Observations:
         K11H00P  C2019 04 04.48017 13 53 44.060-19 31 11.33         21.4 wUEG073F51
         K11H00P  C2019 04 04.49182 13 53 44.246-19 31 12.81         21.4 wUEG073F51
         K11H00P  C2019 04 04.50348 13 53 44.439-19 31 14.32         21.4 wUEG073F51
         K11H00P  C2019 04 04.51515 13 53 44.622-19 31 15.64         21.7 wUEG073F51
         K11H00P  C2019 04 05.43105 13 54 09.671-19 33 10.71         21.4 wUEG073F51
         K11H00P  C2019 04 05.44265 13 54 09.861-19 33 12.08         21.2 wUEG073F51
         K11H00P  C2019 04 05.45429 13 54 10.031-19 33 13.64         21.2 wUEG073F51
         K11H00P  C2019 04 05.46590 13 54 10.215-19 33 15.06         21.1 wUEG073F51
         K11H00P  C2019 04 06.50250013 54 36.614-19 35 06.62         20.90GVEG073F51
         K11H00P  C2019 04 06.51305213 54 36.772-19 35 07.51         20.84GVEG073F51
         K11H00P  C2019 04 06.52367913 54 36.931-19 35 08.41         20.61GVEG073F51
    
    Observer details:
    F51 Pan-STARRS 1, Haleakala.  Observers J. Bulger, T. Lowe, A. Schultz,
        M. Willman, K. Chambers, E. Magnier.  Measurers K. Chambers, S. Chastel,
        T. de Boer, L. Denneau, J. Fairlamb, H. Flewelling, M. Huber, C.-C. Lin,
        E. Magnier, Y. Ramanjooloo, R. Wainscoat, R. Weryk.  1.8-m
        Ritchey-Chretien + CCD.
    
    First and last observations above in comparison with prediction:
    Residuals in seconds of arc (or two decimals in degrees), reference and Delta-T
    190404 F51 0.21+ 0.07-    190406 F51 0.23+ 0.07-    MPO215182   -0.080 day
    
    Orbital elements:
    2011 HP                                                  Earth MOID = 0.0275 AU
    Epoch 2019 Apr. 27.0 TT = JDT 2458600.5                 MPC
    M 339.29566              (2000.0)            P               Q
    n   0.36966490     Peri.   46.06202     +0.09876507     +0.99386383
    a   1.9227843      Node   229.67356     -0.93068682     +0.07454089
    e   0.4813376      Incl.    3.74546     -0.35223217     +0.08172110
    P   2.67           H   22.1           G   0.15           U   0
    Residuals in seconds of arc
    110413 F51  0.0   0.1+    110514 807  0.1-  0.3-    110527 H26  0.2+  0.2+
    110413 F51  0.0   0.1+    110515 807  0.1-  0.2-    110527 H26  0.3+  0.1+
    110413 F51  0.1+  0.0     110515 807  0.2-  0.3-    110527 H26  0.4+  0.4+
    110413 F51  0.0   0.1+    110515 807  0.1-  0.0     110527 H26  0.4+  0.2+
    110424 G96  0.1+  0.0     110515 807  0.2-  0.2+    110527 H26  0.5+  0.2+
    110424 G96  0.3-  0.3-    110515 807  0.2-  0.1-    110527 H26  0.6+  0.1+
    110424 G96  0.2+  0.0     110515 807  0.2-  0.1-    110528 704  0.4-  0.1+
    110424 G96  0.1-  0.3+    110517 H21  0.3+  0.0     110528 704  0.3-  0.2+
    110424 G96  0.0   0.2+    110517 H21  0.3+  0.1-    110528 704  0.0   0.4+
    110424 G96  0.2-  0.0     110517 H21  0.1+  0.2+    110528 704  0.1+  0.8+
    110424 G96  0.4-  0.0     110518 560  0.4-  0.4-    110528 704  0.3-  0.4-
    110424 G96  0.1-  0.1-    110518 560  0.1-  0.2-    110529 704  0.6-  0.9-
    110424 D90  0.2-  0.1-    110518 560  0.1-  0.3-    110529 704  0.1-  0.2-
    110424 D90  0.1+  0.1+    110519 A24  0.4+  0.2+    110529 704  0.1-  0.5-
    110424 J95  0.1+  0.8+    110519 A24  0.1+  0.1+    110529 704  0.4-  0.1+
    110425 J95  0.3-  0.9-    110519 A24  0.5+  0.3+    110529 704  0.3-  0.2+
    110425 D96  0.2+  1.1+    110519 A24  0.4+  0.7+    110529 704  0.2-  0.1+
    110425 D96  0.4+  0.1+    110519 204  0.0   0.0     110529 704  0.5+  0.1+
    110425 D96  0.2-  0.4+    110519 204  0.0   0.1-    110529 704  0.2-  0.2+
    110426 807  0.6-  0.3-    110520 204  0.0   0.0     110529 704 (0.9+  1.7+)
    110426 807  0.7-  0.4-    110520 703  0.7-  0.3-    110529 A48  0.5-  0.0
    110426 807  0.1-  0.3-    110520 703  0.6-  0.5-    110529 A48  0.1+  0.1+
    110426 G96  0.4-  0.1+    110520 703  0.2-  0.5-    110529 A48  0.2+  0.1-
    110426 G96  0.1+  0.1+    110520 703  0.4-  0.2-    110529 A48  0.2+  0.1+
    110426 G96  0.1-  0.1+    110520 807  0.1-  0.4-    110529 B67  0.1+  0.0
    110426 G96  0.2-  0.0     110520 807  0.4-  0.3-    110529 B67  0.2-  0.0
    110427 807  0.6-  0.3-    110520 807  0.2-  0.3-    110529 B67  0.2-  0.1+
    110427 807  0.2-  0.0     110520 807  0.1-  0.3-    110530 A24  0.7+  0.8+
    110427 807  0.0   0.4-    110520 807  0.1-  0.3-    110530 A24  0.2+  0.0
    110427 807  0.2-  0.5-    110520 A24  0.4+  0.2+    110530 A24  0.3+  0.5-
    110428 448  0.2-  0.1+    110520 A24  0.7+  0.3-    110530 A24  0.1+  0.1+
    110428 448  0.2+  0.0     110520 A24  0.3+  0.0     110530 H17 (2.6-  1.4-)
    110428 448  1.3+  0.2-    110520 A24  0.2+  0.4+    110530 H17 (7.1-  3.7-)
    110428 448 (1.8-  0.6-)   110520 A24  0.8+  0.2+    110530 H17  0.7+  0.2-
    110428 807  0.1-  0.2-    110522 H21  0.2-  0.0     110531 H21  0.2-  0.1-
    110428 807  0.1-  0.1-    110522 H21  0.2-  0.0     110531 H21  0.2-  0.1-
    110428 807  0.0   0.2-    110522 H21  0.2-  0.1-    110531 H21  0.0   0.0
    110428 807  0.1-  0.1+    110522 H21  0.0   0.1-    110531 H21  0.0   0.1-
    110429 807  0.5-  0.1+    110522 H21  0.1-  0.1-    110531 H21  0.2-  0.1-
    110429 807  0.3-  0.0     110522 H21  0.1-  0.1-    110531 H21  0.1-  0.1-
    110429 807  0.2-  0.2+    110522 A24  0.5+  0.1+    110531 H21  0.2-  0.1-
    110501 204  0.2+  0.1+    110522 A24  0.7+  0.3+    110604 H21  0.2-  0.2+
    110501 204  0.1+  0.3+    110522 A24  0.5+  0.0     110604 H21  0.1-  0.1-
    110501 204  0.0   0.3+    110522 A24  0.7+  0.3+    110604 H21  0.3-  0.2-
    110504 H21  0.0   0.2+    110522 A24  0.4+  0.1+    110604 H21  0.0   0.3-
    110504 H21  0.3+  0.0     110523 A24  0.5+  0.9+    110604 H21  0.1-  0.0
    110504 H21  0.2+  0.0     110523 A24  0.4+  0.3+    110607 695  0.6+  0.1-
    110504 H21  0.1+  0.0     110523 A24  1.3+  0.5+    110607 695  0.4+  0.0
    110506 H26  0.1+  0.4-    110523 A24  0.5-  1.1+    110607 695 (1.7+  0.1-)
    110506 H26  0.3+  0.0     110524 703  0.4-  0.1+    110607 695 (2.1+  1.0+)
    110506 H26  0.5+  0.4+    110524 703  0.0   0.3+    110706 H21  0.5+  0.4-
    110506 H26  0.3+  0.0     110524 703  0.7-  0.1+    110706 H21  0.0   0.1+
    110508 703  0.6-  0.6+    110524 703  0.6+  1.1-    110706 H21  0.1-  0.2+
    110508 703 (0.7-  1.5+)   110525 J95  0.2-  0.1-    110812 H21  0.6-  0.6+
    110508 703  0.6-  0.4+    110525 J95  0.2-  0.0     110812 H21  0.1+  0.6+
    110508 703  0.2+  0.4+    110525 J95  0.2-  0.0     110812 H21  0.1-  0.5+
    110509 H21  0.1-  0.1-    110525 H21  0.3-  0.1-    110829 568  0.1-  0.0
    110509 H21  0.0   0.0     110525 H21  0.2-  0.3-    110829 568  0.1-  0.0
    110509 704  0.6+  0.5+    110525 H21  0.4-  0.1-    110829 568  0.1-  0.0
    110509 H21  0.0   0.1+    110525 H21  0.3-  0.3-    110830 F51  0.1+  0.0
    110509 704  1.0+  0.3+    110525 H21  0.3-  0.2-    110902 F51  0.1+  0.0
    110509 704  1.0+  0.2-    110525 A53  0.2-  0.3+    110919 F51  0.2+  0.0
    110509 704  0.3+  0.5+    110525 A53  0.3-  0.1+    110919 F51  0.1+  0.1-
    110513 807  0.1-  0.1-    110525 A53  0.2-  0.2+    110919 F51  0.1+  0.0
    110513 807  0.2-  0.3-    110525 A53  0.3-  0.1+    110919 F51  0.2+  0.1-
    110513 807  0.1-  0.3-    110525 046  0.1-  0.1-    110925 F51  0.4+  0.2+
    110513 807  0.1-  0.3-    110525 046  0.1+  0.3-    110925 F51  0.2+  0.1-
    110513 H26  0.1+  0.1+    110525 046  0.2-  0.3-    111001 H21  0.5+  0.7+
    110513 H26  0.2-  0.1-    110525 046  0.0   0.1+    111001 H21  0.4+  0.4+
    110513 H26  0.2-  0.3-    110525 046  0.4+  0.1-    111001 H21  0.6+  0.4+
    110513 H26  0.2-  0.4-    110525 203  1.0-  0.4-    190404 F51  0.1+  0.1+
    110513 448  0.1-  0.1+    110525 203  0.0   0.2-    190404 F51  0.0   0.2+
    110513 448  0.2+  0.4+    110525 203  0.2-  0.1-    190404 F51  0.1+  0.1+
    110513 448  0.6-  0.0     110525 203  0.5-  0.1-    190404 F51  0.0   0.3+
    110513 448  0.3+  0.1+    110527 H26  0.1-  0.9-    190405 F51  0.0   0.1+
    110513 448  0.1-  0.1-    110527 H26  0.1+  0.0     190405 F51  0.1+  0.2+
    110514 807  0.1-  0.2-    110527 H26  0.2+  0.0     190405 F51  0.1-  0.1+
    110514 807  0.1-  0.3-    110527 H26  0.5+  0.2+    190405 F51  0.0   0.1+
    110514 807  0.1+  0.2-    110527 H26  1.4+  0.5+    190406 F51  0.1+  0.0
    110514 807  0.2-  0.3-    110527 H26  0.3+  0.1+    190406 F51  0.1+  0.1+
    110514 807  0.2-  0.4-    110527 H26  0.3+  0.0     190406 F51  0.1+  0.1+
    
    Ephemeris:
    2011 HP                  a,e,i = 1.92, 0.48, 4                   q = 0.9973
    Date    TT    R. A. (2000) Decl.     Delta      r     Elong.  Phase     V
    2019 03 08    13 36 07.8 -17 08 49   0.6265  1.5166   137.9    26.0    23.2
    ...
    2019 03 23    13 47 09.9 -18 43 39   0.4625  1.4145   149.5    21.0    22.2
    ...
    2019 03 31    13 51 37.6 -19 18 12   0.3863  1.3606   155.9    17.5    21.6
    ...
    2019 04 06    13 54 24.0 -19 33 58   0.3342  1.3206   160.8    14.5    21.1
    2019 04 07    13 54 49.6 -19 35 36   0.3259  1.3140   161.6    13.9    21.1
    2019 04 08    13 55 14.8 -19 36 55   0.3177  1.3075   162.4    13.4    21.0
    ...
    2019 04 14    13 57 43.6 -19 37 48   0.2711  1.2685   167.1    10.1    20.4
    ...
    2019 04 22    14 01 31.8 -19 16 33   0.2149  1.2184   172.6     6.1    19.7
    ...
    2019 05 07    14 16 47.8 -16 39 28   0.1249  1.1325   171.1     7.9    18.4
    
    A. U. Tomatic                (C) Copyright 2019 MPC           M.P.E.C. 2019-G73
    

    Read MPEC 2019-G72 Read MPEC 2019-G74


    MPEC number:

    Enter an MPEC number in one of the following forms:

    • 1997-B01 (the full form)
    • J97B01 (the packed version of the full form)
    • B01 (the abbreviated form)